User: anonymous   Login
Location: Boiro
(42.6475°N, 8.8834°W)
Time: 23:24:19
(UTC+02:00)
Language:

DOVE 4 - Orbit

View from above orbital plane
View from above orbital plane
View from above satellite
View from above satellite

Ground track
Ground track

The orbit data is extracted from the following two-line orbital elements,

1 39430U 13066Q   24115.46624422  .00006107  00000-0  10182-2 0  9996
2 39430  97.7400 353.0943 0142445  63.8834 297.6947 14.63762011555186
Epoch (UTC): 24 April 2024 11:11:23
Eccentricity: 0.0142445
inclination: 97.7400°
perigee height: 580 km
apogee height: 781 km
right ascension of ascending node: 353.0943°
argument of perigee: 63.8834°
revolutions per day: 14.63762011
mean anomaly at epoch: 297.6947°
orbit number at epoch: 55518

The dashed part of the orbit path shows where the satellite is in the earth's shadow,  

DLR